Regional Weather Roundup
Issued by NWS Jackson, KY

Home | Current Version | Previous Version | Text Only | Print | Product List | Glossary Off
Versions: 1 2 3 4 5 6 7 8 9 10 11 12 13 14 15 16 17 18 19 20 21 22 23 24 25 26 27

156
ASUS43 KJKL 211510
RWRJKL

EAST KENTUCKY HOURLY WEATHER ROUNDUP
NATIONAL WEATHER SERVICE JACKSON KY
1100 AM EDT THU MAY 21 2015

NOTE: "FAIR" INDICATES FEW OR NO CLOUDS BELOW 12,000 FEET WITH
NO SIGNIFICANT WEATHER AND/OR OBSTRUCTIONS TO VISIBILITY.

* THESE REPORTS ARE NOT UNDER NWS QUALITY CONTROL AND MAY NOT
  REPORT WEATHER SUCH AS PRECIPITATION AND FOG.

KYZ079-080-083-085-087-088-110-112-115-119-120-211600
...EASTERN KENTUCKY...

CITY           SKY/WX    TMP DP  RH WIND       PRES   REMARKS
JACKSON        LGT RAIN  52  51  97 VRB3      30.02R VSB 1
LONDON         CLOUDY    55  48  77 NW9       30.05R
SOMERSET*      CLOUDY    54  48  82 N8        30.07S
MONTICELLO*    CLOUDY    56  52  86 W8        30.09S
MIDDLESBORO*   CLOUDY    58  53  81 NW8       30.03S
HARLAN APT*    CLOUDY    55  54  94 NW7       30.02R
HAZARD APT*    CLOUDY    55  55 100 NW8       30.02R FOG
BLACK MTN*       N/A     50  50 100 CALM        N/A
PIKEVILLE APT* FOG       52  52 100 W6        30.00R VSB 1/2
BIG SANDY*     CLOUDY    52  52  99 CALM      30.01R FOG
MOREHEAD APT*  PTSUNNY   50  48  93 NW6       30.06R FOG
$$

KYZ035-036-041-042-044-050-067-078-099-211600
...CENTRAL KENTUCKY...

CITY           SKY/WX    TMP DP  RH WIND       PRES   REMARKS
MT STERLING*   CLOUDY    52  50  93 N6        30.06R
FLEMING/MASON* CLOUDY    50  48  93 CALM      30.05R
DANVILLE*      CLOUDY    52  48  87 N7        30.07S
RICHMOND*      CLOUDY    52  48  87 NW8       30.05S
LEXINGTON      CLOUDY    54  47  77 NW8       30.05S
FRANKFORT      CLOUDY    55  45  68 NW7       30.05R
$$

KYZ091>093-OHZ055-061-077-WVZ005-015-034-035-042-211600
...SOUTHERN OHIO/WEST VIRGINIA...

CITY           SKY/WX    TMP DP  RH WIND       PRES   REMARKS
COVINGTON      CLOUDY    52  45  77 NW9       30.06R
COLUMBUS       PTSUNNY   53  41  63 VRB5      30.02S
DAYTON         CLOUDY    53  40  61 N8        30.06S
WILMINGTON     CLOUDY    53  42  66 NW8       30.02S
HUNTINGTON     CLOUDY    50  49  96 N6        30.01R FOG
CHARLESTON     DRIZZLE   54  52  93 VRB3      29.98R FOG
PINEVILLE*     DRIZZLE   58  58 100 MISG      30.01S
BECKLEY        CLOUDY    55  53  93 N5        29.96R FOG
BLUEFIELD      LGT RAIN  58  54  86 W6        29.97S FOG
$$

VAZ002-007-008-TNZ017-027-036-066-071-211600
...SOUTHWEST VIRGINIA/EAST TENNESSEE...

CITY           SKY/WX    TMP DP  RH WIND       PRES   REMARKS
WISE*          CLOUDY    54  54 100 W9        30.02R FOG
JONESVILLE*    CLOUDY    59  55  88 W7        30.03R
ABINGDON*      CLOUDY    61  58  90 NW10      29.99R
BRISTOL        CLOUDY    66  58  75 W9        29.97S
KNOXVILLE      CLOUDY    65  57  75 W13       30.00S
OAK RIDGE      CLOUDY    65  55  70 W8        30.03R
CROSSVILLE     CLOUDY    54  50  86 N9        30.07R
NASHVILLE      CLOUDY    53  49  86 NW8G17    30.12R
$$

...KEY TO REMARKS...
VSB - VISIBILITY IN MILES
WCI - WIND CHILL INDEX
HX  - HEAT INDEX

$$



USA.gov is the U.S. government's official web portal to all federal, state and local government web resources and services.